Location: Quebec
(46.8000°N, 71.2500°W)
Time: 19:09:39
(UTC-04:00)

Envisat - Pass Details

Date: 16 October 2017
Orbit: 764 x 766 km, 98.2° (Epoch: 21 October)

Event Time Altitude Azimuth Distance (km) Brightness Sun altitude
Exits shadow 19:06:03 18° 83° (E) 1,816 4.3 -12.8°
Maximum altitude 19:07:32 20° 60° (ENE) 1,702 4.3 -13.1°
Drops below altitude 10° 19:11:12 10° 14° (NNE) 2,313 5.4 -13.7°
Sets 19:14:02 0° 359° (N) 3,243 6.3 -14.2°
